Theta_e
310 310 311 313 312 313 314 315 316 316 316 316 316 318 318 318 318 315 312 314 313 309 310 311 311 309 310 311 309 310 310 311 309 306 305 303 303 304 303 304 304 304 302 301 300 299 297 314 314 308 314 318 318 317
309 310 310 310 311 311 312 313 314 315 315 315 316 317 318 318 317 316 312 313 314 312 310 310 313 315 313 313 312 310 309 309 310 307 305 304 303 304 305 299 305 301 305 306 306 306 313 317 316 317 318 319 318 317
308 309 310 311 311 311 311 312 313 314 314 315 316 316 317 317 317 316 313 312 312 311 311 310 311 314 316 316 317 310 312 311 311 310 309 308 307 308 303 305 305 306 306 308 308 312 314 316 318 319 319 318 319 320
307 308 309 310 310 311 311 311 311 312 313 315 316 317 317 316 316 315 313 311 312 310 306 308 315 313 315 314 314 314 311 311 312 313 310 309 307 307 306 307 307 309 309 310 308 311 315 317 319 320 320 321 321 321
307 308 309 309 310 310 311 312 311 312 312 314 315 315 316 315 314 314 313 313 313 311 305 307 311 314 314 313 313 313 311 310 313 310 310 308 308 308 307 308 306 310 311 307 306 318 318 318 321 322 320 320 321 319
307 307 308 308 309 309 310 310 311 311 311 312 313 314 314 313 313 312 312 313 314 314 308 303 309 313 313 312 310 309 309 311 312 312 310 310 309 311 307 305 311 312 314 316 315 317 321 319 320 323 321 320 320 319
306 307 307 308 308 308 309 310 311 311 312 312 312 313 312 312 312 311 310 312 311 315 309 305 305 313 312 309 311 311 312 312 313 312 311 312 311 312 309 304 313 315 315 318 317 319 316 318 318 321 321 320 319 321
306 306 307 308 308 309 309 310 310 310 311 311 312 312 312 312 311 310 315 312 313 311 310 303 304 308 311 309 309 311 311 313 311 311 311 311 310 311 306 312 314 312 315 317 319 319 317 319 320 319 321 320 319 319
305 306 307 307 308 308 309 309 310 310 311 311 311 312 312 311 310 314 314 314 315 312 306 305 302 304 312 309 311 311 312 307 311 310 310 310 308 305 311 314 315 314 316 317 318 319 318 316 317 319 319 319 317 317
305 306 306 307 307 308 309 310 310 311 311 311 312 312 309 314 317 317 312 310 310 310 308 304 308 307 309 307 307 311 310 308 305 309 311 308 308 315 314 315 316 317 318 319 315 314 315 316 318 318 317 317 318 318
305 306 306 307 308 309 310 311 311 311 312 312 309 310 312 315 313 311 307 306 306 303 306 306 305 306 309 306 307 310 309 309 304 307 308 306 306 312 315 316 318 319 319 319 320 320 320 320 319 317 316 317 318 318
306 306 307 307 310 309 312 311 311 308 308 307 307 310 311 311 307 304 304 304 303 302 307 306 308 306 308 313 312 311 309 307 302 310 308 304 312 314 316 316 317 318 319 320 320 319 319 318 318 317 317 317 318 319
305 306 306 308 309 309 311 312 312 310 310 312 309 308 308 305 295 299 297 301 301 306 308 309 308 309 308 312 309 309 306 304 310 306 304 310 314 317 317 319 319 320 319 319 318 318 317 317 318 318 316 318 319 318
305 306 306 308 307 308 309 311 311 311 309 306 306 292 301 300 301 303 303 304 309 310 310 310 309 309 311 308 308 303 305 308 302 300 302 311 316 319 318 320 319 319 318 317 316 316 315 316 316 318 319 319 318 317
305 305 307 306 307 308 308 310 311 312 308 305 304 295 300 305 306 307 308 307 310 313 311 311 312 312 308 308 309 306 303 300 302 304 310 315 318 320 319 319 319 319 318 315 315 314 315 316 316 317 320 320 318 317
305 306 305 306 306 307 307 311 312 310 307 304 303 301 305 303 305 307 308 310 313 314 315 316 310 307 304 305 305 302 301 300 307 310 314 315 317 320 321 320 320 318 317 316 315 315 316 316 316 317 319 320 319 320
305 305 305 306 306 306 307 310 309 305 302 301 300 305 304 304 303 306 308 311 314 312 310 311 305 304 310 305 303 307 305 309 312 313 315 317 320 321 321 320 317 317 316 315 315 315 316 317 318 317 315 318 320 321
300 303 304 305 306 304 308 309 305 302 298 301 299 301 303 305 305 305 307 310 309 312 312 308 312 306 304 300 304 310 311 314 314 314 316 318 318 319 317 318 318 317 315 315 315 314 315 316 316 317 317 317 318 322
303 305 306 307 306 303 302 304 306 297 299 302 303 303 303 304 306 307 307 308 311 314 313 312 307 305 306 310 311 312 313 312 313 315 315 316 317 317 318 317 316 316 316 315 314 314 316 318 317 317 317 317 316 320
306 305 306 310 307 302 300 302 308 299 297 301 303 302 303 304 306 306 306 307 308 310 309 307 307 310 311 314 314 314 313 316 313 312 311 314 316 317 317 316 316 316 314 316 317 309 318 318 320 319 318 317 315 315
302 305 305 307 304 303 300 301 301 302 302 301 304 305 305 306 305 304 304 307 306 304 306 311 313 315 317 315 318 317 314 315 311 312 315 314 314 316 317 317 315 316 316 316 316 315 313 318 318 318 317 317 318 319
300 302 303 308 303 302 300 302 300 302 300 301 302 304 303 302 304 306 308 305 304 304 309 311 314 315 317 317 316 317 319 319 318 312 306 308 315 316 316 315 316 316 316 317 317 316 316 318 319 316 317 318 317 322
302 302 302 303 299 295 295 304 298 300 297 301 305 302 302 305 305 308 307 308 309 313 313 313 316 320 318 321 319 319 320 319 316 315 311 315 316 316 315 317 317 315 314 317 317 317 318 311 315 319 321 319 318 316
301 298 297 298 298 293 299 297 301 300 302 301 300 299 302 304 308 306 306 308 311 315 314 315 313 313 314 316 314 316 319 319 317 315 316 315 314 314 316 317 316 317 317 317 315 316 320 318 312 319 317 316 314 312
294 293 293 288 299 297 296 297 298 299 298 300 299 300 304 308 303 304 305 307 310 312 314 315 314 314 314 314 315 317 319 315 315 315 316 316 315 315 316 317 316 317 318 319 318 318 317 318 319 317 314 313 310 309
289 295 291 296 296 295 296 295 297 297 298 298 301 304 306 304 301 300 306 312 313 313 314 314 314 314 314 316 316 316 317 318 318 315 315 316 316 315 314 313 312 314 319 319 318 316 317 317 316 315 314 312 303 309
290 293 298 302 300 299 298 301 302 299 297 298 301 301 303 299 299 305 311 317 316 319 320 319 317 316 317 318 318 319 319 318 318 316 315 317 317 319 318 314 313 316 319 319 319 317 316 316 315 314 311 310 310 311
297 298 294 298 299 301 297 298 299 299 300 304 304 300 300 300 300 307 312 318 319 321 320 319 320 319 319 319 319 318 318 316 316 316 317 317 319 319 318 319 319 299 314 312 317 319 318 317 316 312 311 312 312 311
294 298 299 295 297 297 297 297 299 303 307 306 304 303 305 309 314 314 313 314 320 317 315 318 319 320 320 319 319 319 317 317 315 313 312 312 314 315 318 319 320 321 321 318 298 306 314 315 315 314 312 311 312 313
295 299 296 295 295 295 299 302 303 307 309 309 311 311 311 313 315 317 316 316 315 316 318 318 319 319 319 320 319 318 318 318 319 318 316 313 314 318 319 319 319 319 320 320 319 317 305 314 311 316 314 312 311 313
299 297 296 297 297 301 304 306 307 307 307 306 308 306 305 307 311 314 317 317 318 319 319 318 319 320 320 320 320 319 318 318 318 318 317 317 318 319 319 320 320 320 320 320 319 318 316 314 313 314 314 314 313 310
299 295 296 295 299 305 307 305 305 304 304 305 305 307 307 307 306 311 318 320 318 319 312 317 320 320 321 322 321 320 303 320 319 319 317 318 319 320 321 321 320 319 318 318 318 318 318 316 316 316 316 315 314 314
299 300 299 299 300 302 306 304 305 305 305 305 306 307 308 308 306 314 322 321 319 319 320 321 321 322 323 323 324 323 312 320 312 303 302 303 305 311 319 321 320 319 318 317 317 317 316 316 315 315 315 316 317 317
Wind_Speed
11 10 10 10 11 10 11 9 9 9 10 12 13 12 13 15 13 6 2 4 3 2 5 3 2 1 1 1 0 2 3 2 2 3 2 3 3 4 3 1 4 6 6 4 3 5 10 2 5 8 5 6 7 5
12 10 9 9 10 10 10 11 10 9 9 11 12 12 11 11 13 9 2 2 2 3 4 3 6 6 3 0 1 1 3 1 1 4 1 3 3 3 4 4 2 4 4 2 6 1 2 0 3 3 4 7 5 3
12 11 12 11 9 10 10 11 11 10 10 10 11 11 11 10 10 7 3 3 2 3 4 4 5 2 4 9 6 2 2 1 3 3 3 2 3 4 6 5 4 4 3 3 3 5 5 3 2 4 4 3 3 1
12 12 12 12 12 11 8 9 11 10 10 10 11 11 9 11 8 8 3 1 1 1 3 2 3 3 1 4 8 5 3 4 4 0 2 2 3 4 3 2 4 2 8 5 3 3 3 9 10 7 6 4 4 3
14 13 12 12 12 11 11 10 9 10 10 10 11 10 10 10 10 6 3 2 2 3 3 5 8 1 5 6 9 7 5 3 2 2 2 2 3 4 2 1 4 6 6 6 7 7 6 4 11 12 8 6 5 3
13 13 13 12 12 11 13 13 10 9 10 11 11 11 11 11 11 3 2 2 2 2 2 3 3 2 4 6 7 6 3 2 1 2 1 2 1 2 4 4 2 6 6 5 2 3 8 1 1 10 10 6 4 4
14 13 13 13 13 13 13 12 11 10 9 11 11 10 11 8 3 3 2 3 2 3 2 4 3 2 2 3 3 3 2 2 1 2 3 2 3 2 2 5 3 8 8 6 2 5 3 6 2 6 5 4 4 7
15 14 15 15 14 14 13 13 13 11 11 11 12 11 10 8 6 4 0 6 7 2 2 3 3 2 1 2 3 1 3 2 2 1 2 2 3 1 4 6 7 2 3 6 6 4 2 4 3 3 4 6 8 11
15 15 16 15 16 16 15 15 15 14 13 13 14 10 0 2 2 2 6 9 1 2 2 2 2 2 1 2 2 2 1 3 1 3 2 3 3 6 7 7 4 6 4 3 7 5 3 3 3 5 7 9 11 14
16 16 16 17 17 16 15 15 15 15 14 13 2 2 2 1 5 2 2 2 2 1 1 4 0 2 2 1 2 3 0 2 3 2 3 4 4 4 4 4 2 3 6 9 8 4 5 6 6 7 10 11 11 13
15 17 17 18 17 16 14 13 12 13 7 1 0 1 3 5 2 1 2 2 2 3 4 3 5 2 2 2 3 1 2 2 3 4 3 3 3 2 2 3 4 7 8 7 2 2 2 5 8 11 13 13 13 14
15 17 17 17 15 17 15 10 9 3 1 2 2 3 2 1 1 3 2 1 4 3 4 3 2 4 1 1 2 3 2 2 2 4 3 3 2 3 4 6 6 6 6 3 1 3 6 8 9 11 11 12 13 15
15 17 17 16 14 17 14 9 1 4 4 2 2 1 1 2 1 4 5 3 3 3 4 4 3 2 2 2 2 3 4 3 3 3 3 2 1 4 6 5 5 4 2 1 4 5 7 9 10 11 12 12 13 13
15 17 17 13 15 16 15 8 4 2 2 1 1 2 4 4 4 4 3 2 1 2 2 2 2 2 2 3 1 3 2 3 3 3 3 1 3 5 7 5 4 4 1 3 5 7 9 11 12 12 12 13 13 14
16 17 13 7 16 17 15 9 4 1 1 1 1 3 5 3 3 3 4 3 2 2 2 3 2 2 2 3 1 3 3 3 3 2 2 1 3 5 6 6 5 3 2 4 5 7 9 10 11 13 13 13 12 13
17 13 3 16 17 19 17 5 1 1 1 2 3 3 3 3 2 2 2 1 2 2 1 2 2 2 2 1 3 3 5 4 2 2 2 2 3 5 5 5 4 4 4 4 5 7 9 10 11 13 14 13 12 12
11 2 15 18 18 19 9 2 1 2 2 2 3 2 3 4 4 2 1 2 3 2 1 1 2 2 2 1 2 2 3 1 1 2 2 3 3 4 4 4 4 5 5 6 6 8 10 11 10 11 13 13 12 13
4 9 17 17 11 5 2 2 2 2 4 3 3 1 2 3 3 3 2 1 3 2 2 1 2 2 2 1 2 1 2 1 2 2 2 3 3 4 3 4 4 4 6 7 8 10 10 12 12 9 11 11 12 13
10 11 12 13 3 2 2 1 1 3 3 2 3 3 3 4 4 6 5 4 2 1 1 2 3 3 3 3 3 2 1 2 1 1 2 3 4 4 4 3 4 5 7 8 9 8 9 10 9 9 7 7 8 9
13 13 8 7 5 1 2 2 1 3 3 1 3 3 3 4 2 3 3 3 3 2 3 4 4 3 3 2 3 2 3 1 2 1 2 2 3 4 3 3 4 5 6 7 7 6 7 8 7 7 7 7 8 9
6 2 6 2 1 1 2 3 3 2 3 3 2 2 3 2 4 4 4 4 4 4 4 4 5 4 3 2 1 1 2 3 3 3 1 1 2 1 1 1 2 3 4 5 7 7 6 7 9 8 7 7 7 7
2 6 2 2 2 3 3 3 3 3 3 3 3 3 4 3 3 4 3 3 4 5 5 6 5 4 4 4 4 4 3 3 3 2 1 2 1 1 1 2 3 5 5 6 6 7 7 7 7 6 7 8 8 6
4 2 2 2 2 0 3 1 3 3 3 3 2 3 3 3 1 3 3 4 3 2 4 6 8 6 7 5 3 3 4 5 3 3 2 2 1 1 0 2 2 4 6 6 6 6 7 8 6 7 7 6 6 6
2 2 2 2 3 3 1 3 3 3 3 3 3 3 3 3 3 4 3 2 0 3 3 6 5 5 3 4 6 5 5 4 3 3 3 3 3 2 1 2 3 3 4 6 5 5 5 5 7 5 6 5 6 5
2 2 2 4 3 3 4 3 3 3 4 2 3 3 3 1 1 3 0 1 3 5 6 5 3 5 5 5 5 4 6 5 6 5 4 3 3 3 2 1 3 3 3 6 7 7 6 5 5 5 6 7 8 9
3 4 5 3 2 3 3 3 1 2 2 3 3 3 2 3 3 1 1 2 2 4 6 6 4 2 4 4 4 5 6 5 5 4 5 5 3 2 2 3 5 5 5 4 5 6 6 5 7 10 7 8 10 8
3 4 4 3 2 2 3 4 2 2 3 3 3 2 3 2 2 3 4 2 3 5 5 4 4 4 2 3 3 1 4 7 3 2 4 5 4 3 2 4 5 4 4 5 5 5 5 6 8 8 6 6 7 7
3 3 4 1 2 2 4 3 3 4 4 3 2 3 2 2 1 2 4 4 7 6 7 6 4 3 4 2 3 6 6 6 6 6 7 5 3 3 4 4 3 3 5 5 4 4 5 6 8 8 7 8 8 7
4 2 2 6 5 4 5 6 4 3 2 3 2 2 1 1 2 2 6 7 5 3 5 4 2 3 4 4 5 4 6 7 9 9 11 7 6 4 4 4 3 3 4 5 8 8 8 7 9 9 8 8 8 8
4 5 4 4 5 6 5 7 4 4 2 2 2 2 1 2 3 5 8 7 4 5 4 3 2 5 6 7 6 6 5 6 7 7 5 5 6 8 7 5 4 4 3 4 5 5 5 6 5 7 8 6 5 6
1 3 4 5 5 5 7 7 7 7 5 6 7 8 7 2 3 3 1 2 4 2 1 1 2 2 4 6 6 6 5 7 8 7 4 4 8 10 9 7 5 4 4 4 5 5 7 7 5 7 9 9 9 7
5 7 4 5 5 5 6 5 4 3 2 3 2 4 3 4 3 1 4 5 2 3 3 2 1 3 3 2 3 5 4 3 5 8 11 7 8 10 10 8 7 6 5 6 6 6 8 9 8 9 9 10 10 9
4 5 5 4 4 4 3 2 3 3 3 2 1 2 3 2 3 2 1 2 2 3 3 3 4 4 5 5 5 5 4 3 2 6 10 11 14 13 10 9 8 8 8 6 6 7 8 9 8 9 10 9 10 10
Wind_Direction
352 3 360 360 357 341 333 333 334 336 339 336 341 342 345 349 354 359 334 6 344 298 280 222 269 220 165 1 351 60 184 133 93 99 156 151 167 167 186 155 190 196 191 189 161 221 257 103 161 214 95 132 135 142
349 348 350 346 337 335 334 328 330 327 333 333 335 340 344 345 355 356 305 33 326 238 299 298 267 261 269 21 110 103 20 106 102 105 153 129 144 180 169 213 161 217 249 235 221 237 49 256 281 128 148 147 161 174
344 348 349 344 334 327 338 335 321 326 332 331 328 334 339 343 350 4 304 318 278 297 271 278 247 124 206 226 229 305 178 120 147 13 135 109 177 171 170 212 163 198 167 227 204 175 207 208 200 197 188 163 164 202
342 344 343 343 343 340 323 327 332 327 327 330 328 330 340 337 337 342 301 18 288 327 287 303 343 296 319 196 199 203 93 102 89 83 121 161 195 212 190 89 219 99 157 167 244 238 252 243 231 214 207 205 205 200
348 346 342 338 339 342 347 333 329 329 321 330 328 331 337 332 331 315 245 214 249 304 309 296 307 314 325 188 182 175 166 148 153 166 188 184 109 168 84 174 206 186 164 200 255 197 201 227 215 206 212 210 203 239
339 342 346 340 335 341 344 342 328 331 329 325 323 324 326 329 331 277 220 158 188 251 269 292 358 301 16 128 134 141 146 109 157 206 157 158 82 243 185 205 246 207 209 223 202 180 209 341 299 198 214 210 213 264
338 342 341 339 338 334 325 326 330 329 320 315 314 313 320 319 315 257 334 59 152 315 280 291 309 76 336 126 98 123 105 116 253 142 200 152 146 222 201 242 213 219 221 200 197 135 197 218 218 194 201 213 250 279
339 339 337 335 333 329 325 324 325 321 319 311 304 303 298 287 270 273 273 228 195 273 268 282 276 251 359 150 130 14 137 167 71 112 158 178 141 215 250 241 248 255 198 210 204 202 94 99 183 196 224 263 272 276
337 338 336 339 336 330 326 321 319 319 311 305 305 297 183 184 206 52 109 133 194 276 286 235 264 149 357 93 95 131 250 178 84 211 183 200 152 213 224 232 216 189 196 201 167 183 181 219 236 251 262 270 276 287
337 334 339 332 327 323 319 316 314 309 303 302 267 220 143 93 329 117 187 215 198 207 232 250 157 234 248 173 109 142 53 153 195 123 138 223 237 262 237 236 227 202 177 149 150 192 226 257 283 299 301 298 286 284
335 340 335 331 326 321 314 311 310 319 300 238 24 88 346 313 198 209 211 230 164 229 193 240 223 272 164 195 147 259 149 159 220 131 231 192 247 204 208 208 176 161 161 164 123 72 330 308 302 302 299 297 291 288
336 336 336 335 334 332 325 303 302 319 16 314 317 271 262 191 123 230 217 188 220 246 189 215 199 213 188 251 198 172 177 182 199 135 211 230 227 191 168 144 147 162 168 173 216 313 310 303 300 298 294 293 293 292
333 334 335 332 336 340 338 341 304 260 296 197 221 201 47 129 160 212 199 196 233 198 197 194 182 198 167 211 114 184 180 172 140 192 231 245 160 189 180 172 162 166 173 289 310 316 309 303 301 294 295 293 292 288
329 330 330 330 337 342 344 349 339 294 277 264 180 323 221 183 236 209 226 245 277 249 197 196 157 211 161 169 136 163 81 169 162 213 232 240 211 181 179 176 178 174 170 312 309 312 312 309 304 301 293 288 283 283
328 327 325 345 340 338 338 321 323 285 289 272 233 231 230 279 269 272 276 280 276 315 206 161 155 210 143 152 206 125 158 192 222 221 224 159 156 173 181 189 205 235 276 297 315 312 307 306 302 300 303 299 291 284
328 321 15 346 341 332 330 311 224 261 246 233 232 253 229 267 257 14 345 322 343 325 251 221 142 174 66 350 193 182 160 199 194 209 181 163 189 192 190 190 209 226 243 275 287 292 298 303 304 303 306 299 293 287
338 14 327 329 329 321 310 283 240 227 275 243 244 253 270 278 270 293 318 322 335 282 236 280 173 96 145 195 223 189 203 189 181 195 206 207 191 191 191 199 216 233 258 283 293 293 293 302 301 300 301 299 297 288
306 298 306 311 323 310 283 234 267 261 249 241 253 309 224 258 277 275 244 312 354 322 193 151 110 156 190 191 224 221 247 276 253 263 247 198 189 179 198 243 255 269 285 291 289 291 294 301 299 296 303 300 296 290
312 313 314 318 297 317 317 254 267 267 275 299 272 249 257 266 254 262 273 277 246 268 237 220 175 176 211 229 240 225 228 246 205 172 231 233 232 226 236 261 280 285 294 297 297 298 302 295 290 298 289 286 289 295
298 303 302 326 162 276 259 240 215 268 270 322 260 248 247 256 297 253 258 227 206 213 204 214 209 207 198 193 210 179 212 220 148 263 263 240 225 236 266 291 309 312 298 303 298 286 300 310 307 315 309 294 291 290
323 335 331 207 209 225 300 316 261 264 297 270 292 252 264 227 241 223 228 180 200 214 217 219 228 217 197 159 178 167 188 187 213 219 245 332 59 60 8 25 309 307 314 324 315 313 304 316 320 319 315 309 299 284
281 320 286 217 259 184 249 198 268 308 265 266 265 230 259 250 229 208 138 183 226 226 218 227 232 223 232 226 192 208 251 243 230 158 124 123 261 313 47 4 333 325 330 330 320 311 306 313 322 317 307 315 312 318
303 246 248 253 258 187 251 205 251 231 259 255 243 240 242 236 228 154 226 215 241 242 246 238 236 220 228 235 173 182 193 199 209 205 160 175 127 134 259 305 312 323 330 338 336 312 315 324 304 310 327 325 340 339
259 273 267 261 202 260 198 238 220 255 252 245 229 250 240 192 181 231 239 113 202 314 292 280 240 218 205 208 219 215 196 196 181 159 170 152 153 158 246 334 339 337 319 313 306 310 322 319 315 347 342 353 6 10
270 255 187 264 233 232 217 235 228 233 251 249 263 252 250 231 283 305 106 58 343 355 350 341 234 215 217 216 204 197 167 171 181 175 155 168 146 151 106 333 332 344 350 335 347 338 332 330 351 22 27 19 28 37
254 212 196 240 191 210 218 256 198 335 294 258 265 285 283 256 207 234 331 354 2 357 342 343 322 223 220 220 174 181 181 178 171 169 159 183 175 104 53 354 351 24 18 351 334 338 345 7 24 40 36 41 36 50
249 242 205 228 271 270 265 251 235 238 260 246 259 280 281 272 31 5 327 311 306 311 316 303 278 249 249 171 191 148 150 157 142 98 124 160 151 113 84 13 12 5 0 1 0 5 5 29 45 51 53 47 44 45
265 270 243 149 242 227 266 271 250 231 228 218 244 240 282 38 96 236 237 276 292 296 304 302 283 226 208 206 152 143 134 136 104 102 108 95 101 116 107 93 74 59 56 23 5 43 47 58 69 64 55 69 71 72
247 254 281 252 229 230 229 222 242 237 206 182 261 289 150 49 197 229 287 290 306 318 305 316 23 167 154 132 153 153 146 164 169 178 186 170 164 163 154 134 128 90 74 83 48 46 63 66 72 80 75 76 75 84
241 190 219 236 225 226 227 203 232 241 239 238 263 305 293 250 249 227 253 264 245 246 260 247 196 194 178 167 162 183 197 204 218 232 215 193 186 150 155 151 143 104 83 85 89 96 111 78 62 76 90 78 75 90
243 179 231 231 255 247 245 251 253 258 252 253 249 250 257 269 264 252 306 289 288 251 245 131 140 190 201 191 184 186 195 195 214 206 175 121 139 152 152 152 143 119 105 101 97 97 98 89 83 86 89 93 88 90
195 207 212 231 256 258 262 244 243 239 238 222 229 198 184 190 230 80 346 338 348 36 27 354 59 61 21 286 263 267 309 357 185 186 170 152 147 155 151 146 143 127 118 104 95 102 101 97 95 95 95 95 96 98
226 215 206 250 245 242 227 224 234 230 204 216 172 176 191 173 91 40 17 2 7 332 350 348 347 340 332 314 302 294 282 236 220 185 164 149 145 151 153 153 148 141 136 119 108 104 100 104 102 100 97 94 95 99